TimeEST,TemperatureF,Dew PointF,Humidity,Sea Level PressureIn,VisibilityMPH,Wind Direction,Wind SpeedMPH,Gust SpeedMPH,PrecipitationIn,Events,Conditions,WindDirDegrees,DateUTC
12:07 AM,21.2,15.8,80,29.66,10.0,WNW,13.8,20.7,N/A,,Overcast,300,2013-03-04 05:07:00
12:54 AM,21.0,16.0,81,29.71,10.0,WNW,15.0,21.9,N/A,,Overcast,290,2013-03-04 05:54:00
1:54 AM,21.0,17.1,85,29.71,10.0,WNW,17.3,25.3,N/A,,Overcast,290,2013-03-04 06:54:00
2:54 AM,21.0,17.1,85,29.71,10.0,WNW,18.4,26.5,N/A,,Overcast,300,2013-03-04 07:54:00
3:54 AM,21.0,17.1,85,29.73,10.0,West,17.3,26.5,N/A,,Overcast,280,2013-03-04 08:54:00
4:54 AM,21.9,17.1,82,29.73,10.0,WNW,15.0,21.9,N/A,,Overcast,300,2013-03-04 09:54:00
5:54 AM,21.9,18.0,85,29.73,10.0,NW,12.7,21.9,N/A,,Overcast,310,2013-03-04 10:54:00
6:54 AM,23.0,18.0,81,29.74,10.0,WNW,15.0,24.2,N/A,,Overcast,300,2013-03-04 11:54:00
7:54 AM,23.0,19.0,85,29.74,8.0,NW,16.1,25.3,N/A,,Overcast,310,2013-03-04 12:54:00
8:44 AM,23.0,19.4,86,29.69,5.0,WNW,16.1,24.2,N/A,,Overcast,300,2013-03-04 13:44:00
8:54 AM,23.0,19.0,85,29.75,6.0,NW,13.8,24.2,N/A,,Overcast,320,2013-03-04 13:54:00
9:05 AM,24.8,19.4,80,29.69,5.0,WNW,19.6,24.2,N/A,,Haze,300,2013-03-04 14:05:00
9:52 AM,24.8,17.6,74,29.69,4.0,WNW,12.7,24.2,N/A,,Haze,300,2013-03-04 14:52:00
9:54 AM,24.1,18.0,77,29.75,4.0,WNW,12.7,24.2,N/A,,Haze,300,2013-03-04 14:54:00
10:54 AM,24.1,18.0,77,29.74,9.0,WNW,11.5,20.7,N/A,,Overcast,290,2013-03-04 15:54:00
11:54 AM,25.0,18.0,75,29.75,10.0,West,10.4,-,N/A,,Overcast,280,2013-03-04 16:54:00
12:54 PM,25.0,17.1,72,29.74,10.0,NW,13.8,31.1,N/A,,Overcast,310,2013-03-04 17:54:00
1:54 PM,26.1,17.1,69,29.73,10.0,WNW,20.7,27.6,N/A,,Overcast,300,2013-03-04 18:54:00
2:54 PM,26.1,17.1,69,29.74,10.0,WNW,16.1,-,N/A,,Overcast,290,2013-03-04 19:54:00
3:54 PM,25.0,17.1,72,29.76,10.0,NW,16.1,27.6,N/A,,Overcast,310,2013-03-04 20:54:00
4:54 PM,25.0,18.0,75,29.77,10.0,WNW,11.5,23.0,N/A,,Overcast,300,2013-03-04 21:54:00
5:54 PM,25.0,17.1,72,29.79,10.0,WNW,23.0,35.7,N/A,,Overcast,290,2013-03-04 22:54:00
6:54 PM,25.0,18.0,75,29.81,10.0,WNW,19.6,32.2,N/A,,Overcast,300,2013-03-04 23:54:00
7:54 PM,25.0,19.0,78,29.83,10.0,NW,13.8,29.9,N/A,,Overcast,320,2013-03-05 00:54:00
8:54 PM,25.0,19.0,78,29.85,10.0,WNW,11.5,19.6,0.00,,Overcast,300,2013-03-05 01:54:00
9:54 PM,24.1,18.0,77,29.86,10.0,NW,17.3,28.8,N/A,,Overcast,310,2013-03-05 02:54:00
10:54 PM,24.1,18.0,77,29.86,10.0,NW,10.4,21.9,N/A,,Overcast,310,2013-03-05 03:54:00
11:28 PM,24.8,17.6,74,29.81,10.0,WNW,11.5,20.7,N/A,,Overcast,290,2013-03-05 04:28:00
11:54 PM,24.1,18.0,77,29.86,10.0,WNW,8.1,21.9,N/A,,Overcast,300,2013-03-05 04:54:00